Wetterdaten: Woche 14.02.11 - 20.02.11 (KW7)
Datum Zeit Temperatur Luftfeuchte Luftdruck Niederschlag Windrichtung Sonnenschein Solar Wind
14.02.2011 00:00 0,7 C 98 % 1009,0 hPa 0,0 l/m N-NW 0,00 h 0 W/m 6,4 km/h (2 Bft)
14.02.2011 01:00 0,8 C 98 % 1008,8 hPa 0,0 l/m N 0,00 h 0 W/m 1,9 km/h (1 Bft)
14.02.2011 02:00 0,7 C 98 % 1008,9 hPa 0,0 l/m N-NW 0,00 h 0 W/m 3,9 km/h (1 Bft)
14.02.2011 03:00 0,9 C 98 % 1009,0 hPa 0,0 l/m N-NW 0,00 h 0 W/m 4,3 km/h (1 Bft)
14.02.2011 04:00 1,3 C 99 % 1008,9 hPa 0,0 l/m N-NW 0,00 h 0 W/m 3,5 km/h (1 Bft)
14.02.2011 05:00 1,1 C 98 % 1008,9 hPa 0,0 l/m N-NW 0,00 h 0 W/m 2,4 km/h (1 Bft)
14.02.2011 06:00 0,6 C 98 % 1008,8 hPa 0,0 l/m N 0,00 h 0 W/m 1,1 km/h (0 Bft)
14.02.2011 07:00 0,4 C 98 % 1008,8 hPa 0,2 l/m N-NW 0,00 h 16 W/m 1,9 km/h (1 Bft)
14.02.2011 08:00 0,6 C 99 % 1009,0 hPa 0,0 l/m N 0,17 h 65 W/m 2,5 km/h (1 Bft)
14.02.2011 09:00 1,2 C 99 % 1009,3 hPa 0,0 l/m N-NW 0,00 h 122 W/m 3,9 km/h (1 Bft)
14.02.2011 10:00 2,4 C 99 % 1009,2 hPa 0,0 l/m N-NW 0,42 h 205 W/m 3,1 km/h (1 Bft)
14.02.2011 11:00 4,0 C 95 % 1008,9 hPa 0,0 l/m N-NW 0,83 h 362 W/m 4,3 km/h (1 Bft)
14.02.2011 12:00 6,7 C 84 % 1008,2 hPa 0,0 l/m N-NW 1,00 h 458 W/m 5,3 km/h (1 Bft)
14.02.2011 13:00 8,8 C 73 % 1007,6 hPa 0,0 l/m O 1,00 h 430 W/m 6,8 km/h (2 Bft)
14.02.2011 14:00 9,2 C 73 % 1007,1 hPa 0,0 l/m O-NO 0,83 h 300 W/m 10,1 km/h (2 Bft)
14.02.2011 15:00 8,5 C 77 % 1006,8 hPa 0,0 l/m O-NO 0,75 h 212 W/m 9,1 km/h (2 Bft)
14.02.2011 16:00 7,6 C 81 % 1006,6 hPa 0,0 l/m O-NO 0,25 h 80 W/m 9,1 km/h (2 Bft)
14.02.2011 17:00 6,1 C 87 % 1006,5 hPa 0,0 l/m N 0,08 h 16 W/m 7,4 km/h (2 Bft)
14.02.2011 18:00 4,3 C 92 % 1006,5 hPa 0,0 l/m N 0,00 h 0 W/m 5,5 km/h (1 Bft)
14.02.2011 19:00 3,1 C 94 % 1006,2 hPa 0,0 l/m N 0,00 h 0 W/m 2,3 km/h (1 Bft)
14.02.2011 20:00 2,4 C 96 % 1006,0 hPa 0,0 l/m N 0,00 h 0 W/m 3,6 km/h (1 Bft)
14.02.2011 21:00 2,1 C 97 % 1006,1 hPa 0,0 l/m N 0,00 h 0 W/m 6,0 km/h (2 Bft)
14.02.2011 22:00 2,2 C 98 % 1005,7 hPa 0,0 l/m N-NO 0,00 h 0 W/m 6,3 km/h (2 Bft)
14.02.2011 23:00 2,0 C 99 % 1004,9 hPa 0,0 l/m O-NO 0,00 h 0 W/m 5,7 km/h (1 Bft)
15.02.2011 00:00 1,7 C 99 % 1004,8 hPa 0,0 l/m NO 0,00 h 0 W/m 5,6 km/h (1 Bft)
15.02.2011 01:00 1,4 C 99 % 1004,4 hPa 0,0 l/m NO 0,00 h 0 W/m 6,0 km/h (2 Bft)
15.02.2011 02:00 1,2 C 99 % 1004,4 hPa 0,0 l/m N-NO 0,00 h 0 W/m 5,1 km/h (1 Bft)
15.02.2011 03:00 0,9 C 99 % 1004,0 hPa 0,0 l/m O 0,00 h 0 W/m 3,9 km/h (1 Bft)
15.02.2011 04:00 0,8 C 99 % 1003,7 hPa 0,0 l/m O 0,00 h 0 W/m 2,4 km/h (1 Bft)
15.02.2011 05:00 0,7 C 99 % 1003,2 hPa 0,0 l/m O 0,00 h 0 W/m 2,8 km/h (1 Bft)
15.02.2011 06:00 0,7 C 99 % 1002,7 hPa 0,0 l/m N 0,00 h 0 W/m 2,7 km/h (1 Bft)
15.02.2011 07:00 0,5 C 99 % 1002,7 hPa 0,0 l/m NO 0,00 h 8 W/m 4,5 km/h (1 Bft)
15.02.2011 08:00 0,5 C 99 % 1002,7 hPa 0,0 l/m O-NO 0,00 h 24 W/m 4,9 km/h (1 Bft)
15.02.2011 09:00 0,8 C 99 % 1002,6 hPa 0,0 l/m O-SO 0,00 h 80 W/m 6,1 km/h (2 Bft)
15.02.2011 10:00 1,2 C 99 % 1002,3 hPa 0,0 l/m O 0,00 h 94 W/m 6,7 km/h (2 Bft)
15.02.2011 11:00 1,7 C 98 % 1001,8 hPa 0,0 l/m NO 0,00 h 131 W/m 8,4 km/h (2 Bft)
15.02.2011 12:00 1,9 C 96 % 1000,9 hPa 0,0 l/m O 0,00 h 129 W/m 10,6 km/h (2 Bft)
15.02.2011 13:00 2,1 C 95 % 1000,4 hPa 0,0 l/m O-NO 0,00 h 132 W/m 9,0 km/h (2 Bft)
15.02.2011 14:00 2,2 C 95 % 1000,2 hPa 0,0 l/m N-NO 0,00 h 83 W/m 9,4 km/h (2 Bft)
15.02.2011 15:00 1,8 C 95 % 1000,3 hPa 0,0 l/m NO 0,00 h 55 W/m 9,0 km/h (2 Bft)
15.02.2011 16:00 1,7 C 95 % 1000,4 hPa 0,0 l/m NO 0,00 h 39 W/m 6,9 km/h (2 Bft)
15.02.2011 17:00 1,6 C 95 % 1001,0 hPa 0,0 l/m O-SO 0,00 h 9 W/m 2,3 km/h (1 Bft)
15.02.2011 18:00 1,4 C 95 % 1001,5 hPa 0,0 l/m N 0,00 h 0 W/m 2,3 km/h (1 Bft)
15.02.2011 19:00 1,5 C 95 % 1001,6 hPa 0,0 l/m N 0,00 h 0 W/m 1,1 km/h (0 Bft)
15.02.2011 20:00 1,6 C 96 % 1001,6 hPa 0,0 l/m N 0,00 h 0 W/m 1,2 km/h (1 Bft)
15.02.2011 21:00 1,6 C 96 % 1001,6 hPa 0,0 l/m N 0,00 h 0 W/m 1,3 km/h (1 Bft)
15.02.2011 22:00 1,6 C 96 % 1001,6 hPa 0,0 l/m N 0,00 h 0 W/m 0,7 km/h (0 Bft)
15.02.2011 23:00 1,7 C 97 % 1001,6 hPa 0,2 l/m N 0,00 h 0 W/m 0,8 km/h (0 Bft)
16.02.2011 00:00 1,9 C 97 % 1001,8 hPa 0,2 l/m O-SO 0,00 h 0 W/m 1,1 km/h (0 Bft)
16.02.2011 01:00 1,9 C 97 % 1001,7 hPa 0,0 l/m N 0,00 h 0 W/m 0,4 km/h (0 Bft)
16.02.2011 02:00 1,8 C 97 % 1001,5 hPa 0,0 l/m N 0,00 h 0 W/m 1,7 km/h (1 Bft)
16.02.2011 03:00 1,8 C 98 % 1001,3 hPa 0,0 l/m O 0,00 h 0 W/m 3,2 km/h (1 Bft)
16.02.2011 04:00 1,7 C 98 % 1000,9 hPa 0,0 l/m O 0,00 h 0 W/m 3,6 km/h (1 Bft)
16.02.2011 05:00 1,5 C 98 % 1000,8 hPa 0,0 l/m N 0,00 h 0 W/m 4,9 km/h (1 Bft)
16.02.2011 06:00 1,3 C 98 % 1000,5 hPa 0,0 l/m N 0,00 h 0 W/m 5,2 km/h (1 Bft)
16.02.2011 07:00 1,5 C 98 % 1000,5 hPa 0,0 l/m N-NO 0,00 h 8 W/m 6,6 km/h (2 Bft)
16.02.2011 08:00 1,5 C 99 % 1000,4 hPa 0,0 l/m O-NO 0,00 h 33 W/m 10,5 km/h (2 Bft)
16.02.2011 09:00 1,6 C 99 % 1000,2 hPa 0,0 l/m O-NO 0,00 h 64 W/m 9,5 km/h (2 Bft)
16.02.2011 10:00 1,8 C 99 % 1000,0 hPa 0,0 l/m NO 0,00 h 82 W/m 10,6 km/h (2 Bft)
16.02.2011 11:00 2,8 C 97 % 999,7 hPa 0,0 l/m NO 0,00 h 138 W/m 11,4 km/h (2 Bft)
16.02.2011 12:00 3,6 C 93 % 999,0 hPa 0,0 l/m NO 0,17 h 237 W/m 16,4 km/h (3 Bft)
16.02.2011 13:00 3,8 C 92 % 998,3 hPa 0,0 l/m O-NO 0,00 h 108 W/m 17,0 km/h (3 Bft)
16.02.2011 14:00 3,1 C 93 % 997,9 hPa 0,0 l/m NO 0,00 h 51 W/m 14,4 km/h (3 Bft)
16.02.2011 15:00 2,2 C 92 % 997,9 hPa 0,0 l/m O-NO 0,00 h 41 W/m 16,2 km/h (3 Bft)
16.02.2011 16:00 1,3 C 94 % 997,8 hPa 0,0 l/m NO 0,00 h 17 W/m 14,5 km/h (3 Bft)
16.02.2011 17:00 0,8 C 95 % 997,6 hPa 0,0 l/m O-NO 0,00 h 6 W/m 12,6 km/h (3 Bft)
16.02.2011 18:00 0,5 C 96 % 997,7 hPa 0,0 l/m O-NO 0,00 h 0 W/m 12,6 km/h (3 Bft)
16.02.2011 19:00 0,3 C 96 % 997,9 hPa 0,0 l/m O-NO 0,00 h 0 W/m 10,9 km/h (2 Bft)
16.02.2011 20:00 0,1 C 97 % 997,9 hPa 0,0 l/m NO 0,00 h 0 W/m 9,3 km/h (2 Bft)
16.02.2011 21:00 -0,2 C 97 % 997,9 hPa 0,0 l/m O-NO 0,00 h 0 W/m 7,1 km/h (2 Bft)
16.02.2011 22:00 -0,2 C 97 % 997,9 hPa 0,0 l/m O 0,00 h 0 W/m 6,4 km/h (2 Bft)
16.02.2011 23:00 -0,2 C 97 % 997,6 hPa 0,0 l/m NO 0,00 h 0 W/m 4,4 km/h (1 Bft)
17.02.2011 00:00 -0,4 C 97 % 997,6 hPa 0,0 l/m N-NO 0,00 h 0 W/m 4,7 km/h (1 Bft)
17.02.2011 01:00 -0,5 C 98 % 997,8 hPa 0,0 l/m SO 0,00 h 0 W/m 2,7 km/h (1 Bft)
17.02.2011 02:00 -0,6 C 98 % 997,9 hPa 0,0 l/m N 0,00 h 0 W/m 0,8 km/h (0 Bft)
17.02.2011 03:00 -0,5 C 98 % 997,7 hPa 0,0 l/m N 0,00 h 0 W/m 2,3 km/h (1 Bft)
17.02.2011 04:00 -0,5 C 98 % 997,7 hPa 0,0 l/m N 0,00 h 0 W/m 0,9 km/h (0 Bft)
17.02.2011 05:00 -0,4 C 98 % 998,0 hPa 0,0 l/m N 0,00 h 0 W/m 1,5 km/h (1 Bft)
17.02.2011 06:00 -0,4 C 98 % 998,3 hPa 0,0 l/m N 0,00 h 0 W/m 1,5 km/h (1 Bft)
17.02.2011 07:00 -0,3 C 98 % 998,6 hPa 0,0 l/m N 0,00 h 10 W/m 2,0 km/h (1 Bft)
17.02.2011 08:00 -0,1 C 98 % 999,3 hPa 0,0 l/m N 0,00 h 34 W/m 0,0 km/h (0 Bft)
17.02.2011 09:00 0,3 C 98 % 999,9 hPa 0,0 l/m SO 0,00 h 61 W/m 2,3 km/h (1 Bft)
17.02.2011 10:00 0,9 C 98 % 1000,4 hPa 0,0 l/m W-NW 0,00 h 79 W/m 5,5 km/h (1 Bft)
17.02.2011 11:00 1,5 C 96 % 1001,0 hPa 0,0 l/m W-NW 0,00 h 100 W/m 5,2 km/h (1 Bft)
17.02.2011 12:00 1,9 C 94 % 1001,3 hPa 0,0 l/m W-NW 0,00 h 98 W/m 3,3 km/h (1 Bft)
17.02.2011 13:00 2,2 C 93 % 1001,4 hPa 0,0 l/m N-NO 0,00 h 107 W/m 5,5 km/h (1 Bft)
17.02.2011 14:00 2,3 C 91 % 1001,7 hPa 0,0 l/m N-NO 0,00 h 97 W/m 6,5 km/h (2 Bft)
17.02.2011 15:00 2,2 C 91 % 1002,1 hPa 0,0 l/m N 0,00 h 61 W/m 7,1 km/h (2 Bft)
17.02.2011 16:00 2,2 C 90 % 1002,5 hPa 0,0 l/m O-NO 0,00 h 34 W/m 6,3 km/h (2 Bft)
17.02.2011 17:00 1,8 C 90 % 1002,9 hPa 0,0 l/m O-NO 0,00 h 6 W/m 6,7 km/h (2 Bft)
17.02.2011 18:00 1,4 C 91 % 1003,8 hPa 0,0 l/m NO 0,00 h 0 W/m 7,4 km/h (2 Bft)
17.02.2011 19:00 0,9 C 92 % 1004,6 hPa 0,0 l/m NO 0,00 h 0 W/m 7,2 km/h (2 Bft)
17.02.2011 20:00 0,7 C 93 % 1005,3 hPa 0,0 l/m O 0,00 h 0 W/m 4,8 km/h (1 Bft)
17.02.2011 21:00 0,6 C 93 % 1005,8 hPa 0,0 l/m N 0,00 h 0 W/m 1,1 km/h (0 Bft)
17.02.2011 22:00 0,6 C 94 % 1006,3 hPa 0,0 l/m N 0,00 h 0 W/m 2,8 km/h (1 Bft)
17.02.2011 23:00 0,6 C 94 % 1006,6 hPa 0,0 l/m N 0,00 h 0 W/m 3,7 km/h (1 Bft)
18.02.2011 00:00 0,4 C 95 % 1007,0 hPa 0,0 l/m N 0,00 h 0 W/m 3,2 km/h (1 Bft)
18.02.2011 01:00 0,4 C 96 % 1007,6 hPa 0,0 l/m N 0,00 h 0 W/m 2,5 km/h (1 Bft)
18.02.2011 02:00 0,3 C 97 % 1007,9 hPa 0,0 l/m N 0,00 h 0 W/m 3,2 km/h (1 Bft)
18.02.2011 03:00 0,2 C 97 % 1008,0 hPa 0,0 l/m N 0,00 h 0 W/m 2,7 km/h (1 Bft)
18.02.2011 04:00 0,2 C 97 % 1008,4 hPa 0,0 l/m N 0,00 h 0 W/m 0,7 km/h (0 Bft)
18.02.2011 05:00 0,2 C 97 % 1009,0 hPa 0,0 l/m N 0,00 h 0 W/m 0,5 km/h (0 Bft)
18.02.2011 06:00 0,3 C 98 % 1009,4 hPa 0,0 l/m N 0,00 h 0 W/m 2,5 km/h (1 Bft)
18.02.2011 07:00 0,4 C 98 % 1010,0 hPa 0,0 l/m N 0,00 h 5 W/m 2,0 km/h (1 Bft)
18.02.2011 08:00 0,6 C 98 % 1010,6 hPa 0,0 l/m N 0,00 h 18 W/m 0,7 km/h (0 Bft)
18.02.2011 09:00 0,8 C 97 % 1011,0 hPa 0,0 l/m N 0,00 h 34 W/m 2,0 km/h (1 Bft)
18.02.2011 10:00 1,2 C 97 % 1011,4 hPa 0,0 l/m N 0,00 h 41 W/m 1,1 km/h (0 Bft)
18.02.2011 11:00 1,4 C 97 % 1012,0 hPa 0,0 l/m N 0,00 h 41 W/m 0,8 km/h (0 Bft)
18.02.2011 12:00 1,8 C 97 % 1012,2 hPa 0,0 l/m W-NW 0,00 h 43 W/m 2,8 km/h (1 Bft)
18.02.2011 13:00 2,2 C 95 % 1012,3 hPa 0,0 l/m W-NW 0,00 h 53 W/m 4,8 km/h (1 Bft)
18.02.2011 14:00 2,3 C 94 % 1012,6 hPa 0,0 l/m NW 0,00 h 33 W/m 4,3 km/h (1 Bft)
18.02.2011 15:00 2,4 C 94 % 1012,9 hPa 0,0 l/m NW 0,00 h 21 W/m 4,1 km/h (1 Bft)
18.02.2011 16:00 2,2 C 94 % 1013,4 hPa 0,0 l/m N-NW 0,00 h 23 W/m 3,6 km/h (1 Bft)
18.02.2011 17:00 2,0 C 95 % 1013,9 hPa 0,0 l/m N-NW 0,00 h 10 W/m 2,9 km/h (1 Bft)
18.02.2011 18:00 1,8 C 95 % 1014,5 hPa 0,0 l/m N 0,00 h 0 W/m 0,4 km/h (0 Bft)
18.02.2011 19:00 1,7 C 95 % 1014,6 hPa 0,0 l/m N 0,00 h 0 W/m 1,1 km/h (0 Bft)
18.02.2011 20:00 1,6 C 96 % 1014,6 hPa 0,0 l/m N 0,00 h 0 W/m 0,7 km/h (0 Bft)
18.02.2011 21:00 1,6 C 96 % 1014,7 hPa 0,0 l/m N 0,00 h 0 W/m 1,3 km/h (1 Bft)
18.02.2011 22:00 1,6 C 96 % 1015,0 hPa 0,0 l/m N 0,00 h 0 W/m 1,3 km/h (1 Bft)
18.02.2011 23:00 1,5 C 97 % 1015,3 hPa 0,0 l/m N 0,00 h 0 W/m 0,1 km/h (0 Bft)
19.02.2011 00:00 1,5 C 96 % 1015,3 hPa 0,0 l/m N 0,00 h 0 W/m 0,0 km/h (0 Bft)
19.02.2011 01:00 1,4 C 97 % 1015,2 hPa 0,0 l/m N 0,00 h 0 W/m 0,3 km/h (0 Bft)
19.02.2011 02:00 1,3 C 97 % 1015,3 hPa 0,0 l/m N-NW 0,00 h 0 W/m 3,1 km/h (1 Bft)
19.02.2011 03:00 1,2 C 96 % 1015,0 hPa 0,0 l/m N 0,00 h 0 W/m 2,8 km/h (1 Bft)
19.02.2011 04:00 1,3 C 95 % 1014,8 hPa 0,0 l/m N-NW 0,00 h 0 W/m 1,5 km/h (1 Bft)
19.02.2011 05:00 1,2 C 94 % 1015,0 hPa 0,0 l/m N 0,00 h 0 W/m 2,4 km/h (1 Bft)
19.02.2011 06:00 1,1 C 93 % 1014,8 hPa 0,0 l/m N 0,00 h 0 W/m 1,9 km/h (1 Bft)
19.02.2011 07:00 1,0 C 94 % 1014,9 hPa 0,0 l/m N 0,00 h 8 W/m 1,7 km/h (1 Bft)
19.02.2011 08:00 1,0 C 94 % 1015,4 hPa 0,0 l/m N-NW 0,00 h 25 W/m 2,7 km/h (1 Bft)
19.02.2011 09:00 1,2 C 92 % 1015,6 hPa 0,0 l/m N-NW 0,00 h 56 W/m 4,0 km/h (1 Bft)
19.02.2011 10:00 1,6 C 90 % 1015,6 hPa 0,0 l/m O 0,00 h 108 W/m 6,5 km/h (2 Bft)
19.02.2011 11:00 2,4 C 88 % 1015,6 hPa 0,0 l/m O 0,00 h 173 W/m 5,3 km/h (1 Bft)
19.02.2011 12:00 3,4 C 82 % 1015,2 hPa 0,0 l/m O-NO 0,00 h 236 W/m 5,9 km/h (2 Bft)
19.02.2011 13:00 4,2 C 76 % 1014,6 hPa 0,0 l/m N-NO 0,25 h 256 W/m 5,5 km/h (1 Bft)
19.02.2011 14:00 4,7 C 74 % 1014,0 hPa 0,0 l/m O-NO 0,25 h 226 W/m 6,1 km/h (2 Bft)
19.02.2011 15:00 5,1 C 73 % 1013,5 hPa 0,0 l/m SO 0,92 h 255 W/m 7,2 km/h (2 Bft)
19.02.2011 16:00 4,8 C 75 % 1013,6 hPa 0,0 l/m N-NO 0,33 h 86 W/m 7,6 km/h (2 Bft)
19.02.2011 17:00 3,4 C 81 % 1013,9 hPa 0,0 l/m NO 0,08 h 20 W/m 6,9 km/h (2 Bft)
19.02.2011 18:00 2,4 C 86 % 1014,1 hPa 0,0 l/m NO 0,00 h 0 W/m 2,9 km/h (1 Bft)
19.02.2011 19:00 1,5 C 89 % 1014,1 hPa 0,0 l/m N 0,00 h 0 W/m 3,7 km/h (1 Bft)
19.02.2011 20:00 0,6 C 92 % 1013,9 hPa 0,0 l/m NO 0,00 h 0 W/m 2,8 km/h (1 Bft)
19.02.2011 21:00 0,3 C 92 % 1013,7 hPa 0,0 l/m N 0,00 h 0 W/m 2,3 km/h (1 Bft)
19.02.2011 22:00 -0,0 C 93 % 1013,5 hPa 0,0 l/m N-NW 0,00 h 0 W/m 4,1 km/h (1 Bft)
19.02.2011 23:00 -0,4 C 94 % 1013,1 hPa 0,0 l/m N-NW 0,00 h 0 W/m 3,7 km/h (1 Bft)
20.02.2011 00:00 -0,6 C 95 % 1012,7 hPa 0,0 l/m N-NW 0,00 h 0 W/m 3,5 km/h (1 Bft)
20.02.2011 01:00 -0,6 C 95 % 1012,4 hPa 0,0 l/m N-NW 0,00 h 0 W/m 4,9 km/h (1 Bft)
20.02.2011 02:00 -0,3 C 96 % 1012,3 hPa 0,0 l/m N-NO 0,00 h 0 W/m 4,9 km/h (1 Bft)
20.02.2011 03:00 0,1 C 96 % 1012,4 hPa 0,0 l/m N-NO 0,00 h 0 W/m 4,8 km/h (1 Bft)
20.02.2011 04:00 0,3 C 96 % 1012,4 hPa 0,0 l/m O-NO 0,00 h 0 W/m 6,1 km/h (2 Bft)
20.02.2011 05:00 0,4 C 95 % 1012,5 hPa 0,0 l/m O-NO 0,00 h 0 W/m 3,9 km/h (1 Bft)
20.02.2011 06:00 0,5 C 95 % 1012,3 hPa 0,0 l/m O-NO 0,00 h 0 W/m 4,4 km/h (1 Bft)
20.02.2011 07:00 0,4 C 95 % 1012,2 hPa 0,0 l/m O 0,00 h 6 W/m 5,9 km/h (2 Bft)
20.02.2011 08:00 0,5 C 95 % 1012,4 hPa 0,0 l/m O-NO 0,00 h 26 W/m 7,4 km/h (2 Bft)
20.02.2011 09:00 0,6 C 96 % 1012,3 hPa 0,2 l/m O-NO 0,00 h 34 W/m 10,1 km/h (2 Bft)
20.02.2011 10:00 0,7 C 96 % 1012,3 hPa 0,0 l/m O 0,00 h 62 W/m 8,2 km/h (2 Bft)
20.02.2011 11:00 0,9 C 96 % 1012,2 hPa 0,4 l/m O 0,00 h 102 W/m 10,8 km/h (2 Bft)
20.02.2011 12:00 0,8 C 96 % 1012,0 hPa 0,4 l/m O-NO 0,00 h 109 W/m 9,4 km/h (2 Bft)
20.02.2011 13:00 0,8 C 96 % 1011,8 hPa 0,4 l/m O-NO 0,00 h 83 W/m 9,7 km/h (2 Bft)
20.02.2011 14:00 0,9 C 96 % 1011,4 hPa 0,6 l/m O-NO 0,00 h 73 W/m 8,8 km/h (2 Bft)
20.02.2011 15:00 0,8 C 96 % 1011,4 hPa 0,0 l/m O-NO 0,00 h 59 W/m 6,7 km/h (2 Bft)
20.02.2011 16:00 0,5 C 96 % 1011,8 hPa 0,0 l/m O-NO 0,00 h 28 W/m 8,7 km/h (2 Bft)
20.02.2011 17:00 0,3 C 96 % 1012,1 hPa 1,4 l/m NO 0,00 h 8 W/m 7,9 km/h (2 Bft)
20.02.2011 18:00 0,1 C 97 % 1012,7 hPa 1,4 l/m NO 0,00 h 0 W/m 5,7 km/h (1 Bft)
20.02.2011 19:00 -0,1 C 97 % 1013,0 hPa 0,8 l/m NO 0,00 h 0 W/m 5,2 km/h (1 Bft)
20.02.2011 20:00 -0,4 C 97 % 1013,2 hPa 0,4 l/m N-NO 0,00 h 0 W/m 6,4 km/h (2 Bft)
20.02.2011 21:00 -0,8 C 97 % 1013,5 hPa 0,6 l/m N-NO 0,00 h 0 W/m 6,1 km/h (2 Bft)
20.02.2011 22:00 -1,2 C 96 % 1013,8 hPa 0,2 l/m NO 0,00 h 0 W/m 8,3 km/h (2 Bft)
20.02.2011 23:00 -1,5 C 96 % 1014,2 hPa 0,0 l/m N-NO 0,00 h 0 W/m 6,7 km/h (2 Bft)
Min-Datum _ 20.02.11 14.02.11 16.02.11 - - - - 14.02.11
_ Min-Zeit 23:30 13:55 17:40 - - - - 01:40
Minimum _ -1,6 C 69 % 997,4 hPa - - - - 0,0 km/h (0 Bft)
Max-Datum _ 14.02.11 15.02.11 19.02.11 20.02.11 - 14.02.11 19.02.11 16.02.11
_ Max-Zeit 14:05 03:15 10:10 17:25 - 08:00 14:20 15:45
Maximum _ 9,9 C 100 % 1015,7 hPa 1,4 l/m - 0,08 h 478 W/m 22,5 km/h
O-NO (4 Bft)
Durchschnitt _ 1,4 C 95 % 1007,0 hPa #7,4 l/m O-NO #7:20 h 89 W/m 5,0 km/h (1 Bft)